Location: Celina Division
(33.3022°N, 96.7580°W)
Time: 10:24:45
(UTC+00:00)

Hubble Space Telescope - Visible Passes

Search period start: 08 December 2022 00:00
Search period end: 18 December 2022 00:00
Orbit: 530 x 534 km, 28.5° (Epoch: 07 December)

Date Brightness Start Highest point End Pass type
(mag) Time Alt. Az. Time Alt. Az. Time Alt. Az.
08 Dec 2.6 11:24:38 21° SSW 11:25:52 24° SSE 11:29:12 10° ESE visible
09 Dec 2.3 11:13:02 27° SSE 11:13:09 27° SSE 11:16:38 10° ESE visible
09 Dec 1.8 12:49:59 10° WSW 12:53:51 42° S 12:57:43 10° ESE visible
10 Dec 2.5 11:01:19 28° SE 11:01:19 28° SE 11:04:03 10° ESE visible
10 Dec 1.7 12:37:17 10° WSW 12:41:09 42° S 12:45:02 10° ESE visible
11 Dec 3.0 10:49:32 23° ESE 10:49:32 23° ESE 10:51:25 10° ESE visible
11 Dec 1.7 12:24:44 11° WSW 12:28:27 41° S 12:32:18 10° ESE visible
12 Dec 3.5 10:37:40 17° ESE 10:37:40 17° ESE 10:38:46 10° ESE visible
12 Dec 1.7 12:12:53 16° WSW 12:15:44 40° S 12:19:34 10° ESE visible
13 Dec 4.0 10:25:47 12° ESE 10:25:47 12° ESE 10:26:05 10° ESE visible
13 Dec 1.7 12:00:59 22° WSW 12:03:01 38° S 12:06:49 10° ESE visible
14 Dec 1.8 11:49:03 28° SW 11:50:17 35° S 11:54:01 10° ESE visible
15 Dec 1.9 11:37:07 31° SSW 11:37:33 32° SSW 11:41:12 10° SE visible
16 Dec 2.2 11:25:10 28° S 11:25:10 28° S 11:28:20 10° SE visible
17 Dec 2.7 11:13:14 22° SSE 11:13:14 22° SSE 11:15:25 10° SE visible
